Probability
0 0 0 0 0 0 0 0 0 1 1 1 0 0 0 0 0 0 0 0 0 0 1 1 1 2 2 2 1 0 0 0 1 1 1 1 1 1 1 0 0 1 2
0 0 0 0 0 0 0 0 0 0 0 0 0 0 0 0 0 0 0 0 0 0 1 2 1 1 1 1 0 0 0 0 1 2 2 2 2 2 1 0 1 2 4
1 0 0 0 0 0 0 0 0 0 0 0 0 0 0 0 0 0 0 0 0 0 1 1 1 1 1 1 0 0 0 0 1 1 1 1 1 1 1 0 1 3 4
2 1 1 1 0 0 0 0 0 0 0 0 0 0 0 0 0 0 0 0 0 0 1 2 2 2 2 1 0 0 0 0 0 0 0 0 0 0 0 0 0 1 2
2 2 2 2 1 0 0 0 0 0 0 0 0 0 0 0 0 0 0 0 0 0 1 2 2 1 1 0 0 1 1 1 1 0 0 0 0 0 0 0 0 0 1
1 1 1 1 1 0 0 0 0 0 0 0 0 0 0 0 0 0 0 0 0 0 0 1 1 0 0 1 2 3 4 4 3 1 1 1 1 0 0 0 0 0 0
0 0 0 0 0 0 0 0 0 0 0 0 0 0 0 0 0 0 0 0 0 0 0 0 0 0 0 2 4 5 6 6 5 3 3 2 2 1 0 0 0 0 0
1 1 1 1 0 0 0 0 0 0 0 0 0 0 0 0 0 0 0 0 1 1 1 1 0 0 0 1 3 6 8 7 6 5 4 3 3 2 1 1 0 0 0
2 3 3 2 2 1 1 0 0 0 0 0 0 0 0 0 0 0 0 0 1 2 2 1 1 1 1 1 2 4 6 6 7 7 6 5 4 4 3 2 0 0 0
4 3 3 4 4 4 3 1 0 0 1 0 0 0 0 0 0 0 0 0 1 1 1 1 2 2 2 1 2 3 4 4 6 7 7 5 5 4 4 2 0 0 0
4 3 3 4 5 5 5 3 2 1 1 0 1 1 0 0 0 0 0 0 1 0 0 1 2 3 2 1 1 3 3 3 3 4 4 3 3 2 2 2 0 0 0
3 3 3 3 4 4 5 5 5 3 2 2 3 3 2 1 0 0 0 0 1 1 1 1 1 3 2 1 1 2 2 1 1 1 1 1 1 0 1 1 0 0 0
4 4 3 3 3 4 5 6 7 7 6 5 5 5 3 2 2 2 1 1 2 2 2 1 1 2 2 1 0 1 1 0 0 0 0 0 0 0 0 0 0 0 0
6 5 4 4 4 4 6 7 8 9 8 7 5 4 4 3 3 4 4 4 3 2 2 2 1 1 2 1 0 0 0 0 0 0 0 0 0 0 0 0 0 0 0
7 7 7 7 6 5 7 9 9 9 9 7 5 4 4 4 4 4 5 5 4 2 2 2 2 2 2 1 0 0 0 0 0 0 0 0 0 0 0 0 0 0 0
10 10 10 9 7 6 8 9 9 10 10 9 7 6 6 5 4 4 4 5 5 4 3 2 3 3 4 2 1 0 0 0 0 0 0 0 0 0 0 0 0 0 0
13 12 11 10 8 7 8 9 10 11 11 10 8 7 6 6 4 4 4 4 5 5 4 3 3 3 3 2 1 0 0 0 0 0 0 0 0 0 0 0 0 0 0
14 13 13 12 10 7 7 9 11 13 12 11 9 8 7 7 6 6 6 5 4 5 6 5 4 3 2 2 1 1 0 0 0 0 0 0 0 0 0 0 0 0 0
13 13 12 12 11 8 7 9 11 14 15 12 9 8 8 8 8 8 8 7 5 5 7 7 5 3 2 1 2 1 0 0 0 0 0 0 0 0 0 0 0 0 0
13 13 13 14 13 11 10 10 12 14 15 13 10 9 8 7 8 8 9 9 8 7 7 7 5 4 2 2 2 1 0 0 0 0 0 0 0 0 0 0 0 0 0
15 16 17 18 17 16 14 13 12 14 14 13 13 12 9 8 7 7 8 9 10 10 8 7 5 3 2 2 3 2 1 0 0 0 0 0 0 0 0 0 0 0 0
21 22 23 22 21 19 16 13 12 12 13 14 15 15 13 10 8 7 7 8 9 10 9 8 6 4 2 2 3 2 1 0 0 0 0 0 0 0 0 0 0 0 0
25 27 28 26 22 19 16 12 11 11 13 15 16 16 14 11 8 7 6 6 6 7 9 8 7 5 3 2 2 2 1 0 0 0 0 0 0 0 0 0 0 0 0
25 27 29 27 22 19 16 14 12 11 13 15 16 16 14 12 9 7 7 6 5 5 6 7 6 5 3 2 2 2 2 1 0 0 0 0 0 0 0 0 0 0 0
25 26 27 25 21 19 17 15 13 13 14 15 16 16 14 12 9 8 8 8 7 6 5 4 3 2 1 1 1 2 3 1 1 0 0 0 0 0 0 0 0 0 0
24 25 25 24 21 18 17 14 13 14 14 15 16 16 14 11 9 7 8 9 9 7 5 2 1 0 0 0 1 2 3 2 2 1 0 0 0 0 0 0 0 0 0
Wind_Speed
2 2 1 2 2 2 3 3 3 3 4 4 4 5 4 4 4 3 3 8 8 7 6 7 7 7 7 7 7 7 7 7 8 7 7 7 7 7 7 7 7 6 6
2 2 2 2 2 2 2 3 3 3 3 3 4 4 4 4 4 3 2 4 7 6 5 6 7 7 7 7 7 7 7 7 7 7 7 7 6 6 7 7 7 7 7
3 3 3 2 2 3 3 4 4 3 4 4 4 4 4 4 4 4 3 2 2 4 4 5 5 6 6 6 7 7 7 6 7 7 7 6 6 6 6 7 7 7 7
4 4 3 2 2 3 3 3 3 4 3 3 2 2 2 3 4 3 2 2 1 1 2 4 4 4 5 6 7 7 6 6 6 6 7 7 6 6 6 6 7 7 7
4 4 3 2 3 3 2 3 3 3 3 3 2 2 2 2 2 3 3 2 2 2 1 2 3 4 5 5 5 6 6 6 6 6 6 6 6 6 6 6 6 6 7
4 4 3 3 3 3 2 2 3 2 3 3 3 2 1 1 1 2 3 3 2 2 2 1 1 2 5 4 4 5 5 6 5 5 5 5 5 5 5 5 5 5 6
4 4 3 3 3 3 3 3 3 3 2 2 3 2 2 1 1 1 1 2 2 2 2 2 1 1 1 3 4 4 5 6 5 4 4 4 4 5 5 5 4 4 5
4 4 4 3 3 2 2 2 3 2 1 2 3 2 1 2 2 0 1 1 2 2 2 3 2 2 2 1 2 5 5 5 4 4 3 3 3 3 3 4 4 4 4
3 3 4 4 3 3 3 3 3 3 2 1 2 4 3 3 1 2 1 1 1 1 1 1 2 3 2 1 1 3 4 4 4 4 3 3 3 2 2 2 3 4 4
3 3 4 4 3 3 3 3 3 2 3 2 1 1 2 4 3 0 2 1 0 0 1 1 1 2 2 1 2 3 3 3 3 3 3 2 2 2 2 2 3 4 4
1 2 3 3 3 2 3 2 2 2 2 2 2 1 1 1 2 3 1 1 1 1 0 1 1 1 2 2 1 2 3 3 3 2 2 1 1 1 1 1 2 2 2
0 1 2 2 2 2 2 3 3 2 2 2 2 2 2 2 2 3 3 2 1 1 1 0 1 1 1 2 3 6 5 5 4 3 2 2 1 1 1 0 0 0 1
1 2 2 2 2 2 2 2 2 2 2 2 2 2 2 2 2 3 3 2 1 1 0 1 0 1 2 2 2 6 5 5 4 4 3 3 3 2 2 2 2 2 2
3 2 2 2 2 2 2 2 2 2 2 2 2 2 1 1 2 3 3 3 1 0 0 1 0 0 1 2 3 5 4 6 5 4 4 4 5 5 5 4 3 3 3
3 3 3 2 2 2 2 2 2 2 2 2 2 2 1 1 1 2 3 4 4 2 2 2 1 1 1 2 3 3 3 5 5 5 4 4 5 5 5 5 4 3 3
3 3 3 2 2 2 2 2 2 2 2 2 2 2 1 1 1 2 3 3 3 4 3 2 2 2 2 3 4 3 3 6 5 5 4 4 4 5 5 4 4 4 4
3 3 3 3 3 2 2 2 2 2 2 2 2 2 2 2 1 1 2 2 2 3 3 1 1 1 2 3 2 2 2 2 2 4 4 4 4 5 4 4 4 4 4
3 3 3 3 3 2 2 3 3 3 3 3 3 2 2 2 2 2 2 2 2 3 4 3 2 2 2 3 3 3 2 2 2 4 4 4 4 4 4 4 3 3 3
3 3 3 3 3 2 3 3 4 3 3 3 3 3 3 2 2 2 2 2 2 2 3 4 3 1 1 2 3 2 2 1 2 3 4 3 4 4 3 3 3 2 2
4 3 3 3 3 3 3 3 3 3 3 3 3 4 4 4 4 3 3 3 3 3 3 4 3 2 2 2 3 2 1 0 1 2 2 2 2 3 3 3 3 2 3
4 4 3 3 2 2 3 3 3 3 3 3 3 4 4 5 6 5 4 4 4 4 4 3 3 2 2 3 3 3 3 1 1 2 1 1 1 0 1 2 3 3 3
3 3 4 3 3 3 4 6 4 3 3 3 3 3 3 4 5 5 6 6 7 6 6 4 3 4 4 4 3 4 3 3 2 2 3 2 1 1 2 2 3 3 3
3 3 3 3 4 4 5 5 5 3 3 4 4 4 3 3 4 3 4 4 5 7 9 6 6 6 5 6 6 5 5 4 3 3 3 2 2 2 3 3 5 4 4
3 3 4 4 3 4 5 5 5 3 3 4 4 5 4 3 4 4 4 3 2 3 5 5 5 5 5 5 7 7 6 4 1 1 3 3 2 3 3 2 5 6 6
3 3 3 4 4 4 5 5 4 2 2 3 3 4 4 4 6 7 6 4 3 2 2 4 5 5 6 7 7 4 4 4 2 2 2 3 2 2 1 2 4 7 7
3 3 3 3 4 4 5 6 6 3 3 3 2 2 5 6 7 8 6 6 5 4 3 2 2 2 3 5 9 7 6 5 3 3 3 4 2 2 1 2 2 3 4
Wind_Direction
113 110 108 100 103 105 113 113 105 103 106 107 109 113 118 124 129 129 138 148 149 156 162 169 174 179 181 181 178 177 177 176 180 183 188 194 198 198 198 199 203 206 209
118 112 98 95 101 110 115 118 114 105 99 101 100 106 115 118 119 121 127 150 152 153 165 173 179 177 178 180 182 180 178 180 184 188 192 196 198 202 205 207 210 214 214
118 116 106 101 110 112 108 104 101 97 99 98 96 103 110 115 121 122 122 121 149 158 156 155 160 166 170 176 179 180 180 184 186 191 195 201 206 211 212 214 216 218 216
122 114 111 110 112 106 106 108 103 101 97 98 96 97 100 113 128 135 128 122 117 137 160 154 154 160 169 173 181 181 183 188 192 196 200 203 208 213 214 220 220 218 212
127 123 123 120 117 106 108 123 111 117 115 113 115 107 96 114 140 139 132 138 140 139 147 165 169 171 179 178 179 188 189 189 194 195 200 205 211 213 215 216 218 217 212
125 123 126 128 121 110 105 112 120 118 122 131 122 102 87 113 134 145 154 153 162 169 169 175 195 198 186 183 187 193 195 194 192 195 201 210 216 216 218 222 223 220 217
130 126 125 127 123 127 144 142 127 120 119 118 97 70 30 33 79 139 148 149 174 186 171 176 183 187 197 197 194 192 196 197 197 195 198 210 220 220 217 214 213 219 217
132 137 133 140 138 134 135 142 135 130 155 151 136 126 83 3 356 349 142 157 180 184 187 193 185 183 196 204 187 194 200 203 200 200 199 210 211 199 198 206 209 215 215
137 139 147 147 153 152 158 171 162 154 173 206 166 151 153 192 268 341 343 147 157 148 195 203 188 192 191 198 204 197 189 190 199 204 203 199 187 180 190 206 220 221 220
145 148 151 152 155 157 163 182 171 163 157 179 215 184 168 158 156 189 332 331 171 167 194 179 181 180 175 178 164 141 156 174 193 205 202 175 157 167 202 222 230 228 226
149 149 153 153 157 161 169 174 163 156 159 168 177 174 141 131 144 151 212 294 348 326 253 160 150 149 143 159 171 150 139 133 134 140 135 137 131 149 208 223 229 229 227
183 171 148 154 162 166 172 175 172 162 164 168 168 168 169 172 180 163 180 204 222 278 312 278 141 133 128 132 142 130 124 110 102 100 101 101 97 89 93 72 12 234 223
197 209 173 164 174 183 181 170 161 171 176 177 186 192 192 198 175 157 152 176 190 261 341 354 277 156 138 121 129 131 124 115 106 100 99 94 92 80 73 66 77 67 63
202 192 176 181 187 185 185 169 169 192 180 187 203 195 192 208 174 165 162 156 153 301 290 243 325 182 137 133 130 127 123 122 115 109 103 98 93 83 73 67 72 72 70
193 184 182 185 193 188 184 174 185 205 188 197 206 203 205 225 193 180 170 163 160 184 236 224 209 183 149 131 135 121 123 130 121 113 107 102 96 85 78 72 66 62 62
191 183 184 190 200 201 189 177 189 201 188 214 204 196 216 224 209 188 182 181 172 168 193 211 203 179 162 142 136 126 126 132 126 120 113 109 103 98 90 82 74 72 73
193 190 192 188 196 199 190 183 197 190 192 222 223 205 223 213 202 201 180 173 174 156 165 210 184 155 144 144 132 126 124 119 123 125 124 117 111 108 103 97 84 77 75
203 198 194 193 203 205 200 195 205 199 196 211 224 214 226 209 204 196 176 175 174 162 156 170 178 154 157 159 149 147 145 142 128 128 128 125 118 114 111 104 96 87 80
199 197 192 200 210 212 211 208 199 197 197 208 208 203 214 195 208 200 180 176 170 150 142 151 167 157 145 154 139 130 126 104 140 132 133 135 135 136 130 124 118 112 106
191 193 196 203 206 210 216 204 189 195 204 212 209 204 205 197 201 196 188 178 158 140 136 141 148 152 149 152 143 149 149 185 178 155 151 153 156 161 166 160 150 143 143
196 192 189 200 206 206 209 195 195 201 203 213 219 216 212 202 197 194 186 175 158 150 147 147 156 156 168 169 183 178 174 179 233 187 160 191 186 226 234 215 194 180 171
203 191 191 200 211 223 211 200 196 202 204 205 219 228 222 209 195 184 180 180 174 169 170 168 176 185 195 193 179 176 164 158 218 210 163 216 182 217 237 227 213 193 185
206 206 205 205 219 229 216 211 206 203 207 212 215 216 217 208 189 174 165 163 182 187 183 178 184 198 193 194 179 183 186 183 200 190 158 208 211 225 234 222 211 209 206
206 216 216 216 223 235 221 217 213 210 216 225 220 213 206 209 195 171 159 164 184 198 195 187 191 202 197 191 190 190 185 175 164 172 156 185 210 221 229 230 225 216 216
220 222 215 215 221 240 225 218 203 198 220 238 227 206 196 200 198 177 166 174 187 216 198 185 189 197 196 191 179 157 155 152 189 226 188 173 196 203 231 237 235 224 222
219 216 225 223 220 234 233 220 202 192 210 234 245 220 203 200 197 184 180 181 195 209 185 189 208 224 206 199 188 181 177 174 175 212 202 175 180 159 237 252 226 222 223